SCP
0 0 0 0 0 0 0 0 0 0 0 0 0 0 0 0 0 0 0 0 0 1 2 2 2 1 1 1 1 1 1 1 1 1 1 1 1 1 1 1 1 1 1 0 0 0 0 0 0
0 0 0 0 0 0 0 0 0 0 0 0 0 0 0 0 0 0 0 0 1 1 2 3 2 2 1 1 1 1 1 1 1 1 1 1 1 1 1 1 1 1 1 1 1 0 1 1 1
0 0 0 0 0 0 0 0 0 0 0 0 0 0 0 0 0 0 0 1 1 1 2 3 3 2 1 1 1 1 1 1 2 2 1 1 1 1 1 1 1 1 1 1 1 1 1 1 1
0 0 0 0 0 0 0 0 0 0 0 0 0 0 0 0 0 0 1 1 1 2 3 3 3 2 1 1 1 1 1 1 1 1 1 1 1 1 1 1 1 1 1 1 1 1 1 1 1
0 0 0 0 0 0 0 0 0 0 0 0 0 0 0 0 1 1 1 1 1 2 3 4 3 2 1 1 1 1 1 1 1 1 1 1 1 1 1 1 1 1 1 1 1 1 1 1 1
0 0 0 0 0 0 0 0 0 0 0 0 0 0 0 0 1 1 1 2 2 2 4 4 3 2 2 1 1 1 1 1 1 1 1 1 1 1 1 1 1 1 1 1 1 1 1 1 1
0 0 0 0 0 0 0 0 0 0 0 0 0 0 0 0 1 1 1 2 2 3 4 5 3 2 2 1 1 1 1 1 1 1 1 1 0 0 0 1 1 1 1 1 1 1 1 1 1
0 0 0 0 0 0 0 0 0 0 0 0 0 0 0 0 1 1 2 2 2 3 4 5 4 2 2 1 1 1 1 1 1 1 1 0 0 0 0 0 1 1 1 1 1 1 1 1 1
0 0 0 0 0 0 0 0 0 0 0 0 0 0 0 1 1 2 2 2 2 2 4 5 4 3 2 2 1 1 1 1 1 1 1 0 0 0 0 0 0 1 1 1 1 1 1 1 1
0 0 0 0 0 0 0 0 0 0 0 0 0 0 1 2 2 2 2 1 1 2 4 5 4 3 3 2 2 2 1 1 1 1 0 0 0 0 0 0 0 0 1 1 1 1 1 1 1
0 0 0 0 0 0 0 0 0 0 0 0 0 0 1 2 2 2 2 1 1 2 3 4 4 3 3 2 2 2 2 1 1 1 1 0 0 0 0 0 0 0 0 1 1 1 1 1 1
0 0 0 0 0 0 0 0 0 0 0 0 0 0 1 3 3 2 2 2 2 1 2 4 4 4 3 2 2 2 2 2 1 1 1 1 0 0 0 0 0 0 0 0 0 0 1 0 0
0 0 0 0 0 0 0 0 0 0 0 0 0 0 1 3 3 2 1 1 1 1 1 3 4 4 2 2 2 2 2 2 2 1 1 1 0 0 0 0 0 0 0 0 0 0 0 0 0
0 0 0 0 0 0 0 0 0 0 0 0 0 0 1 1 1 1 0 0 0 0 1 2 4 3 2 2 2 2 2 2 2 2 1 1 1 0 0 0 0 0 0 0 0 0 0 0 0
0 0 0 0 0 0 0 0 0 0 0 0 0 0 0 0 0 0 0 0 0 0 0 2 4 3 2 1 2 2 2 2 2 2 1 1 1 0 0 0 0 0 0 0 0 0 0 0 0
0 0 0 0 0 0 0 0 0 0 0 0 0 0 0 0 0 0 0 0 0 0 0 1 3 3 2 1 1 2 2 2 2 1 1 1 1 0 0 0 0 0 0 0 0 0 0 0 0
0 0 0 0 0 0 0 0 0 0 0 0 0 0 0 0 0 0 0 0 0 0 0 1 3 3 2 1 1 1 2 2 1 1 1 1 1 0 0 0 0 0 0 0 0 0 0 0 0
0 0 0 0 0 0 0 0 0 0 0 0 0 0 0 0 0 0 0 0 0 0 0 1 2 3 2 1 1 1 1 1 1 1 1 0 0 0 0 0 0 0 0 1 1 1 1 0 0
0 0 0 0 0 0 0 0 0 0 0 0 0 0 0 0 0 0 0 0 0 0 0 0 1 2 2 1 0 1 1 1 1 1 1 0 0 0 0 0 0 0 0 1 1 1 1 0 0
0 0 0 0 0 0 0 0 0 0 0 0 0 0 0 0 0 0 0 0 0 0 0 0 0 1 1 1 0 0 1 1 1 1 1 0 0 0 0 0 0 0 0 0 1 1 1 1 1
0 0 0 0 0 0 0 0 0 0 0 0 0 0 0 0 0 0 0 0 0 0 0 0 0 0 0 0 0 0 0 1 1 1 1 0 0 0 0 0 0 0 0 0 0 1 1 1 1
0 0 0 0 0 0 0 0 0 0 0 0 0 0 0 0 0 0 0 0 0 0 0 0 0 0 0 0 0 0 0 0 1 1 1 0 0 0 0 0 0 0 0 0 0 0 1 1 1
0 0 0 0 0 0 0 0 0 0 0 0 0 0 0 0 0 0 0 0 0 0 0 0 0 0 0 0 0 0 0 0 0 1 1 0 0 0 0 0 0 0 0 0 0 0 0 1 1
0 0 0 0 0 0 0 0 0 0 0 0 0 0 0 0 0 0 0 0 0 0 0 0 0 0 0 0 0 0 0 0 0 0 1 1 0 0 0 0 0 0 0 0 0 0 0 0 1
0 0 0 0 0 0 0 0 0 0 0 0 0 0 0 0 0 0 0 0 0 0 0 0 0 0 0 0 0 0 0 0 0 0 0 0 0 0 0 0 0 0 0 0 0 0 0 0 0
0 0 0 0 0 0 0 0 0 0 0 0 0 0 0 0 0 0 0 0 0 0 0 0 0 0 0 0 0 0 0 0 0 0 0 0 0 0 0 0 0 0 0 0 0 0 0 0 0
0 0 0 0 0 0 0 0 0 0 0 0 0 0 0 0 0 0 0 0 0 0 0 0 0 0 0 0 0 0 0 0 0 0 0 0 0 0 0 0 0 0 0 0 0 0 0 0 0
0 0 0 0 0 0 0 0 0 0 0 0 0 0 0 0 0 0 0 0 0 0 0 0 0 0 0 0 0 0 0 0 0 0 0 0 0 0 0 0 0 0 0 0 0 0 0 0 0
0 0 0 0 0 0 0 0 0 0 0 0 0 0 0 0 0 0 0 0 0 0 0 0 0 0 0 0 0 0 0 0 0 0 0 0 0 0 0 0 0 0 0 0 0 0 0 0 0
0 0 0 0 0 0 0 0 0 0 0 0 0 0 0 0 0 0 0 0 0 0 0 0 0 0 0 0 0 0 0 0 0 0 0 0 0 0 0 0 0 0 0 0 0 0 0 0 0
Wind_Speed
8 4 2 4 7 5 2 3 1 1 1 1 2 3 5 4 3 2 1 4 4 2 3 3 4 6 6 7 9 9 10 10 10 10 10 11 10 10 10 11 11 11 11 11 11 11 12 12 13
2 2 5 6 6 2 4 2 3 1 2 2 3 3 4 2 1 2 2 4 4 3 3 3 5 6 7 8 9 9 9 9 10 10 10 10 10 11 11 11 11 11 11 11 11 11 11 12 12
2 4 6 6 4 5 4 2 2 2 3 2 3 3 2 1 1 1 2 3 3 4 4 4 6 7 8 8 8 9 9 9 10 10 10 10 10 11 11 11 11 11 11 11 11 10 11 11 11
3 5 6 5 2 3 1 1 2 3 3 3 3 3 2 3 1 1 2 3 4 5 5 4 8 8 8 8 9 9 9 9 9 9 9 10 10 10 11 11 11 11 11 10 10 10 10 10 10
5 5 5 2 2 1 1 0 3 2 2 2 3 3 1 2 3 3 3 4 5 5 5 5 8 8 8 9 9 9 9 9 8 9 9 9 9 10 10 10 10 10 10 10 9 9 9 9 10
5 5 4 3 3 1 0 1 2 2 2 2 3 3 2 1 3 3 3 4 5 4 5 5 7 9 9 9 9 9 9 9 9 9 9 9 9 10 10 9 9 9 9 9 9 9 8 8 9
5 5 3 4 2 2 1 1 3 3 2 2 3 4 1 1 1 2 3 4 4 5 5 5 5 6 8 9 9 10 10 10 10 10 10 9 9 9 9 9 9 9 9 8 8 8 8 8 8
5 6 3 2 3 4 1 2 1 2 2 1 3 4 3 2 0 2 3 4 4 5 5 5 5 5 4 4 8 9 10 10 10 11 11 10 9 8 8 8 8 8 8 9 8 8 8 8 8
4 5 3 5 5 3 2 2 1 2 3 1 1 1 1 4 3 3 3 3 3 4 4 4 4 5 5 4 6 7 8 9 9 8 10 8 4 4 5 7 8 8 8 9 9 9 9 8 8
5 3 5 2 3 3 2 2 3 2 1 0 1 1 3 4 3 3 2 2 2 2 2 3 4 4 4 4 3 3 3 4 4 4 5 4 4 4 5 7 8 8 8 8 8 9 8 6 3
3 4 2 0 0 2 2 2 2 4 3 5 5 4 4 3 3 2 2 1 0 1 1 2 2 3 3 3 2 2 2 2 3 4 4 3 3 3 3 2 3 4 5 4 5 5 4 3 3
4 1 1 0 1 1 2 3 2 3 5 3 5 6 6 6 5 5 3 2 1 0 1 1 2 2 2 2 2 2 1 2 2 3 3 3 2 3 3 2 2 3 2 3 3 2 3 3 2
2 1 1 2 3 2 2 1 2 3 3 1 3 5 6 6 5 3 2 2 1 1 1 0 0 1 1 2 1 2 1 1 1 1 2 3 2 2 2 2 2 2 2 2 2 2 3 2 2
2 2 1 1 1 1 1 2 2 6 2 3 4 5 6 5 4 3 3 3 2 2 2 1 1 1 1 1 1 1 1 1 1 1 1 2 2 1 1 2 2 2 2 2 2 2 2 1 1
2 2 2 1 0 1 1 4 6 4 3 3 5 5 5 4 4 5 5 4 3 3 2 2 2 1 1 1 1 1 1 0 1 1 1 1 1 1 1 1 2 2 2 2 2 2 2 2 2
2 2 2 2 1 1 2 9 3 3 5 5 5 5 5 5 5 5 4 4 3 3 2 3 2 2 1 1 1 1 0 0 0 0 0 1 1 1 1 1 1 2 2 1 1 2 2 2 2
3 1 3 4 1 1 3 9 3 2 4 5 5 5 5 5 6 6 5 5 4 4 4 3 3 3 2 1 1 1 1 0 0 1 0 0 1 1 1 0 1 1 2 2 2 2 1 1 2
3 3 4 5 2 1 5 11 7 4 5 7 6 6 6 8 9 6 5 5 4 3 4 3 3 3 2 1 1 1 0 0 0 1 1 0 0 0 0 0 1 1 1 2 2 2 2 1 1
2 3 5 5 2 2 8 13 12 6 6 8 8 8 9 9 6 4 4 4 3 3 3 4 3 3 3 1 1 1 1 1 1 1 1 1 0 0 0 0 1 1 1 1 2 1 2 2 2
1 3 5 5 2 3 8 14 11 7 8 9 10 10 9 8 5 4 4 4 4 4 4 4 4 4 4 3 2 2 2 2 2 1 1 1 1 1 0 0 0 0 1 1 1 1 1 1 2
3 4 4 4 5 2 6 10 6 4 4 5 7 7 7 8 8 7 6 6 5 5 5 5 5 5 4 4 2 1 1 1 1 1 1 1 1 1 1 1 1 0 0 1 1 1 1 0 1
5 3 3 3 3 4 1 8 8 4 5 6 7 6 7 7 6 6 6 5 5 6 4 4 5 5 4 4 4 4 3 3 3 2 2 2 2 2 2 2 1 1 1 1 1 0 1 1 1
3 1 2 3 2 4 2 5 11 2 5 7 7 8 7 6 6 6 6 6 5 4 3 4 4 5 4 4 5 5 4 3 2 2 2 2 2 2 2 2 2 2 1 1 1 1 1 1 2
1 1 1 1 2 5 5 5 10 4 6 6 5 5 6 6 6 5 4 3 3 3 3 3 3 5 5 5 5 5 5 4 3 3 3 3 2 2 3 3 2 2 2 2 2 2 2 2 2
1 3 3 4 2 7 2 5 12 7 6 5 6 6 6 5 5 5 5 5 4 4 4 3 4 5 5 5 5 5 6 6 6 5 5 4 3 2 3 3 3 3 3 3 2 2 2 2 3
3 4 5 5 6 6 2 8 10 5 5 5 5 5 4 4 5 6 6 6 5 5 4 4 5 5 5 6 6 5 5 4 4 5 5 4 4 4 4 4 3 3 3 3 2 2 3 3 3
3 3 3 3 2 5 7 8 11 4 5 4 5 4 5 5 5 5 5 5 5 5 5 5 5 5 5 5 4 4 5 5 5 5 5 4 4 3 4 4 4 4 4 4 3 3 3 3 4
2 4 3 3 3 7 8 7 7 6 5 5 5 5 6 5 5 5 4 4 4 4 4 4 5 5 5 4 4 4 4 5 5 5 5 5 4 4 4 5 4 4 4 4 4 3 4 4 4
4 3 3 3 3 4 7 9 7 7 5 5 6 6 6 6 5 5 4 4 3 3 3 4 4 4 4 4 4 4 4 4 5 5 5 5 4 5 5 5 5 5 5 4 4 4 4 5 5
4 5 7 5 5 5 5 12 4 4 4 4 6 6 6 5 5 4 4 3 3 3 3 4 4 4 4 4 4 4 4 4 5 5 5 5 5 5 5 5 5 5 5 5 5 6 5 6 6
Wind_Direction
344 360 58 56 58 57 212 233 162 118 91 51 63 95 118 123 141 166 303 340 350 346 332 336 39 51 53 57 57 59 60 58 56 57 59 60 60 59 61 62 63 65 68 72 73 75 75 78 78
340 17 52 59 92 141 252 230 186 164 140 108 54 67 84 85 48 50 334 335 354 6 2 348 56 60 59 59 60 61 61 60 58 56 57 58 59 60 62 63 60 61 65 68 70 73 75 76 78
9 48 76 77 119 183 206 189 170 85 85 81 72 47 80 94 47 34 326 333 17 23 12 6 63 63 62 60 59 61 61 60 58 56 56 56 58 60 60 63 61 61 64 66 67 69 72 74 76
66 49 56 79 188 222 220 208 146 120 68 54 92 71 44 22 8 350 9 33 47 31 17 14 64 63 61 61 60 58 59 61 61 57 55 55 56 58 59 59 61 62 61 63 64 65 70 72 72
58 74 71 66 225 250 272 138 131 113 115 64 99 113 73 5 29 48 49 48 54 35 24 21 57 64 61 58 57 58 58 58 60 60 58 57 55 56 57 57 59 62 61 60 61 62 66 73 72
58 69 100 203 227 258 276 139 126 101 112 102 112 125 164 42 46 40 48 54 53 46 35 33 45 58 58 57 54 53 56 55 54 57 59 58 56 57 56 56 59 61 61 60 60 62 61 70 70
102 103 155 183 192 242 216 104 128 138 145 181 149 132 180 319 23 60 51 53 51 48 43 35 32 45 50 51 52 52 51 52 53 53 53 55 54 53 55 53 56 57 55 58 57 61 60 64 67
113 107 123 178 188 230 168 112 99 130 166 104 128 149 204 241 153 70 57 47 50 48 43 37 35 35 36 43 47 50 51 50 50 50 47 47 48 48 49 46 50 52 53 53 55 58 61 62 61
85 87 186 206 194 212 153 128 68 53 100 59 74 184 192 128 111 89 57 35 37 42 37 36 38 39 32 40 46 46 48 46 47 44 44 44 34 37 40 38 44 48 50 50 51 55 57 60 57
79 146 211 204 186 168 154 148 154 117 81 254 336 29 94 118 126 114 90 60 24 21 28 37 41 39 38 39 40 39 47 42 42 41 37 36 30 33 40 37 40 42 45 45 47 52 52 50 41
90 165 179 338 120 137 139 140 159 152 220 221 206 181 153 151 155 151 161 160 187 333 19 32 54 47 50 42 37 36 43 42 39 42 36 36 38 35 34 33 31 29 35 34 36 37 32 35 35
96 62 96 359 42 109 158 158 180 203 225 225 192 167 169 180 186 188 193 206 194 15 5 15 49 60 63 60 49 39 45 48 40 33 38 44 42 35 23 25 19 24 20 23 29 27 25 36 38
100 97 39 45 56 85 114 177 222 247 251 171 144 162 186 195 200 202 196 189 195 240 276 316 75 91 83 78 58 51 37 52 49 46 40 46 54 45 26 17 19 21 18 19 20 25 20 27 33
115 86 23 0 41 32 135 273 250 252 196 153 166 190 201 204 206 206 206 205 214 230 251 226 177 145 119 104 85 67 35 47 62 58 47 51 56 52 36 27 16 15 10 6 4 11 6 359 10
88 58 355 311 231 220 86 287 234 229 163 183 202 208 210 215 213 216 217 216 215 221 242 226 194 158 145 135 128 95 47 63 85 52 68 61 55 60 38 42 23 359 349 1 7 8 8 10 7
60 58 307 286 158 203 163 263 251 187 173 208 217 215 218 227 229 234 230 225 221 216 228 230 204 170 175 165 150 127 97 51 151 111 107 83 61 64 65 43 14 350 350 3 11 13 8 2 354
38 277 260 287 224 164 200 254 266 193 188 224 230 224 226 237 245 244 236 227 225 220 219 226 204 185 188 182 152 143 158 139 216 146 125 122 83 66 82 44 358 9 6 3 5 10 346 340 337
233 236 257 264 275 232 245 260 267 230 221 235 238 236 235 236 240 242 239 233 227 227 220 221 214 198 181 169 145 149 148 189 227 177 156 148 163 128 80 44 8 24 21 5 2 353 344 315 306
178 210 262 274 288 260 255 267 272 248 237 242 241 236 238 243 248 244 236 233 226 228 223 211 211 202 177 172 185 190 218 232 255 202 170 170 181 176 102 21 351 24 19 348 348 345 341 343 338
210 255 269 292 316 274 281 276 271 243 229 232 233 234 236 244 249 240 232 225 222 221 223 218 212 209 195 193 195 197 199 204 229 213 179 175 182 206 187 138 274 322 10 350 348 3 351 337 2
239 227 245 278 321 294 301 291 270 267 236 240 236 233 233 229 230 229 227 227 227 227 221 225 219 219 203 189 180 176 169 204 234 227 202 201 200 213 213 207 216 252 176 251 294 339 326 288 312
253 230 235 264 308 292 329 292 283 281 287 258 245 238 239 237 232 227 223 227 229 234 229 227 225 221 203 182 183 193 200 215 227 232 221 230 209 215 222 212 201 206 215 237 257 312 284 226 248
226 276 249 255 232 289 265 252 282 309 279 266 250 242 245 238 229 227 225 226 233 233 229 230 232 215 198 189 191 194 208 217 213 227 218 223 224 218 222 213 205 204 218 231 253 280 268 242 233
181 47 28 57 84 271 229 212 278 241 243 272 267 253 249 241 233 235 238 237 244 238 229 228 235 217 199 195 198 195 200 209 208 226 225 217 219 224 225 219 211 211 217 226 233 244 244 244 249
86 89 9 343 322 255 197 225 254 253 247 249 269 268 261 249 235 230 226 225 230 229 226 227 236 221 206 200 207 206 202 203 209 220 221 212 216 226 223 225 219 219 223 230 233 233 243 242 235
200 163 173 224 250 280 256 239 254 258 271 272 276 275 269 256 245 235 229 225 228 229 229 232 242 226 209 208 213 208 206 209 216 216 222 214 216 223 218 222 224 229 232 239 235 237 243 243 240
166 204 195 164 255 275 265 276 292 273 289 294 293 292 277 268 261 249 241 232 231 229 227 228 241 225 214 211 209 210 210 215 219 214 218 217 217 221 215 215 223 230 231 232 230 235 242 241 247
176 158 127 162 229 268 279 265 257 278 283 296 298 291 287 283 278 270 253 242 239 236 233 235 237 225 219 212 211 218 216 218 220 212 215 215 219 222 217 220 224 230 232 233 231 241 240 238 247
164 174 179 182 198 213 273 267 229 231 256 274 284 289 288 284 279 275 271 260 251 248 235 243 239 228 222 218 220 220 227 225 213 211 216 214 218 218 219 220 223 227 230 230 230 237 239 241 248
191 193 173 190 231 215 245 269 258 240 270 274 288 298 297 287 283 281 282 282 268 262 258 255 240 232 227 223 222 225 231 223 213 217 222 218 221 222 222 220 222 228 232 230 229 235 239 238 243